TimeCST,TemperatureF,Dew PointF,Humidity,Sea Level PressureIn,VisibilityMPH,Wind Direction,Wind SpeedMPH,Gust SpeedMPH,PrecipitationIn,Events,Conditions,WindDirDegrees,DateUTC
12:55 AM,28.4,23.0,80,30.35,10.0,SE,3.5,-,N/A,,Clear,140,2012-11-28 06:55:00
1:15 AM,26.6,21.2,80,30.35,10.0,SSE,5.8,-,N/A,,Clear,150,2012-11-28 07:15:00
1:35 AM,26.6,21.2,80,30.35,10.0,Calm,Calm,-,N/A,,Clear,0,2012-11-28 07:35:00
1:56 AM,26.6,21.2,80,30.35,10.0,SSE,3.5,-,N/A,,Clear,150,2012-11-28 07:56:00
2:15 AM,26.6,21.2,80,30.35,10.0,Calm,Calm,-,N/A,,Clear,0,2012-11-28 08:15:00
2:35 AM,26.6,19.4,74,30.35,10.0,Calm,Calm,-,N/A,,Clear,0,2012-11-28 08:35:00
3:15 AM,26.6,21.2,80,30.35,10.0,Calm,Calm,-,N/A,,Clear,0,2012-11-28 09:15:00
3:35 AM,24.8,19.4,80,30.35,10.0,Calm,Calm,-,N/A,,Clear,0,2012-11-28 09:35:00
3:55 AM,26.6,19.4,74,30.35,10.0,Calm,Calm,-,N/A,,Clear,0,2012-11-28 09:55:00
4:16 AM,24.8,21.2,86,30.35,10.0,Calm,Calm,-,N/A,,Clear,0,2012-11-28 10:16:00
4:35 AM,26.6,21.2,80,30.35,10.0,Calm,Calm,-,N/A,,Clear,0,2012-11-28 10:35:00
4:55 AM,26.6,21.2,80,30.35,10.0,Calm,Calm,-,N/A,,Clear,0,2012-11-28 10:55:00
5:35 AM,24.8,21.2,86,30.36,10.0,Calm,Calm,-,N/A,,Clear,0,2012-11-28 11:35:00
5:55 AM,24.8,21.2,86,30.36,10.0,Calm,Calm,-,N/A,,Clear,0,2012-11-28 11:55:00
6:35 AM,26.6,21.2,80,30.37,10.0,Calm,Calm,-,N/A,,Clear,0,2012-11-28 12:35:00
6:55 AM,24.8,21.2,86,30.37,10.0,Calm,Calm,-,N/A,,Clear,0,2012-11-28 12:55:00
7:35 AM,26.6,24.8,93,30.39,10.0,Calm,Calm,-,N/A,,Clear,0,2012-11-28 13:35:00
7:55 AM,28.4,24.8,86,30.40,10.0,Calm,Calm,-,N/A,,Clear,0,2012-11-28 13:55:00
8:15 AM,32.0,26.6,80,30.40,10.0,Calm,Calm,-,N/A,,Clear,0,2012-11-28 14:15:00
8:36 AM,33.8,26.6,75,30.41,10.0,SSE,3.5,-,N/A,,Clear,160,2012-11-28 14:36:00
8:55 AM,35.6,28.4,75,30.41,10.0,SSE,3.5,-,N/A,,Clear,150,2012-11-28 14:55:00
9:15 AM,39.2,28.4,65,30.41,10.0,SE,3.5,-,N/A,,Clear,140,2012-11-28 15:15:00
9:55 AM,44.6,30.2,57,30.43,10.0,SSE,3.5,-,N/A,,Clear,160,2012-11-28 15:55:00
10:15 AM,46.4,30.2,53,30.43,10.0,South,3.5,-,N/A,,Clear,180,2012-11-28 16:15:00
10:35 AM,48.2,30.2,50,30.43,10.0,SSE,5.8,-,N/A,,Clear,160,2012-11-28 16:35:00
10:55 AM,48.2,30.2,50,30.42,10.0,Calm,Calm,-,N/A,,Clear,0,2012-11-28 16:55:00
11:35 AM,51.8,30.2,44,30.40,10.0,SE,3.5,-,N/A,,Clear,130,2012-11-28 17:35:00
11:55 AM,53.6,28.4,38,30.39,10.0,SE,6.9,-,N/A,,Clear,130,2012-11-28 17:55:00
12:55 PM,53.6,28.4,38,30.35,10.0,South,6.9,-,N/A,,Clear,170,2012-11-28 18:55:00
1:16 PM,55.4,28.4,36,30.34,10.0,South,8.1,-,N/A,,Clear,180,2012-11-28 19:16:00
1:35 PM,55.4,28.4,36,30.33,10.0,SSE,5.8,-,N/A,,Clear,150,2012-11-28 19:35:00
1:55 PM,55.4,28.4,36,30.32,10.0,SSW,4.6,-,N/A,,Clear,210,2012-11-28 19:55:00
2:35 PM,57.2,28.4,33,30.30,10.0,SSW,4.6,-,N/A,,Clear,200,2012-11-28 20:35:00
2:55 PM,57.2,28.4,33,30.29,10.0,SSW,6.9,-,N/A,,Clear,210,2012-11-28 20:55:00
3:15 PM,57.2,28.4,33,30.29,10.0,South,3.5,-,N/A,,Clear,190,2012-11-28 21:15:00
3:35 PM,57.2,28.4,33,30.29,10.0,South,5.8,-,N/A,,Clear,180,2012-11-28 21:35:00
3:55 PM,55.4,28.4,36,30.29,10.0,South,6.9,-,N/A,,Clear,170,2012-11-28 21:55:00
4:15 PM,55.4,28.4,36,30.28,10.0,South,4.6,-,N/A,,Clear,180,2012-11-28 22:15:00
4:36 PM,55.4,28.4,36,30.28,10.0,South,6.9,-,N/A,,Clear,190,2012-11-28 22:36:00
4:55 PM,53.6,28.4,38,30.28,10.0,South,6.9,-,N/A,,Clear,190,2012-11-28 22:55:00
5:15 PM,51.8,28.4,41,30.28,10.0,South,4.6,-,N/A,,Clear,190,2012-11-28 23:15:00
5:55 PM,48.2,28.4,46,30.28,10.0,South,5.8,-,N/A,,Clear,180,2012-11-28 23:55:00
6:15 PM,48.2,26.6,43,30.28,10.0,South,5.8,-,N/A,,Clear,170,2012-11-29 00:15:00
6:35 PM,46.4,26.6,46,30.28,10.0,South,5.8,-,N/A,,Clear,170,2012-11-29 00:35:00
6:55 PM,44.6,26.6,49,30.27,10.0,SSE,4.6,-,N/A,,Clear,160,2012-11-29 00:55:00
7:15 PM,42.8,26.6,53,30.28,10.0,SSE,4.6,-,N/A,,Clear,160,2012-11-29 01:15:00
7:35 PM,42.8,26.6,53,30.27,10.0,SSE,4.6,-,N/A,,Clear,150,2012-11-29 01:35:00
8:15 PM,39.2,28.4,65,30.26,10.0,SE,6.9,-,N/A,,Clear,140,2012-11-29 02:15:00
8:35 PM,41.0,28.4,61,30.26,10.0,SE,8.1,-,N/A,,Clear,140,2012-11-29 02:35:00
9:15 PM,39.2,28.4,65,30.25,10.0,SE,6.9,-,N/A,,Clear,140,2012-11-29 03:15:00
9:35 PM,39.2,28.4,65,30.25,10.0,SE,8.1,-,N/A,,Clear,140,2012-11-29 03:35:00
10:15 PM,37.4,28.4,70,30.24,10.0,SE,5.8,-,N/A,,Clear,130,2012-11-29 04:15:00
10:35 PM,39.2,28.4,65,30.24,10.0,SE,4.6,-,N/A,,Clear,140,2012-11-29 04:35:00
10:55 PM,39.2,28.4,65,30.23,10.0,SE,4.6,-,N/A,,Clear,140,2012-11-29 04:55:00
11:15 PM,37.4,28.4,70,30.23,10.0,Calm,Calm,-,N/A,,Clear,0,2012-11-29 05:15:00
11:35 PM,37.4,28.4,70,30.22,10.0,Calm,Calm,-,N/A,,Clear,0,2012-11-29 05:35:00
11:55 PM,37.4,28.4,70,30.22,10.0,SE,5.8,-,N/A,,Clear,140,2012-11-29 05:55:00